Location: Schommer Observatory
(40.5200°N, 74.4500°W)
Time: 11:08:38
(UTC-04:00)

Vanguard 1 - All Passes

Search period start: 24 September 2018 00:00
Search period end: 04 October 2018 00:00
Orbit: 650 x 3833 km, 34.2° (Epoch: 23 September)

Date Brightness Start Highest point End Pass type
(mag) Time Alt. Az. Time Alt. Az. Time Alt. Az.
24 Sep - 04:10:56 10° S 04:13:07 13° SE 04:15:32 10° ESE visible
24 Sep - 06:26:59 10° WSW 06:32:05 46° SSE 06:40:26 10° E daylight
24 Sep - 08:45:39 10° W 08:52:40 56° S 09:05:40 10° ESE daylight
24 Sep - 11:05:28 10° W 11:14:45 38° SSW 11:30:23 10° SE daylight
24 Sep - 13:29:30 10° WSW 13:38:02 17° SW 13:48:54 10° S daylight
25 Sep - 04:30:16 10° SSW 04:33:37 19° SSE 04:37:40 10° ESE visible
25 Sep - 06:47:36 10° WSW 06:52:53 51° S 07:01:46 10° E daylight
25 Sep - 09:06:29 10° W 09:13:41 51° S 09:26:51 10° ESE daylight
25 Sep - 11:26:47 10° W 11:35:55 31° SSW 11:50:28 10° SSE daylight
25 Sep - 13:54:59 10° SW 13:59:15 11° SW 14:04:00 10° SSW daylight
26 Sep - 04:50:17 10° SSW 04:54:10 26° SSE 04:59:14 10° E visible
26 Sep - 07:08:18 10° WSW 07:13:45 53° S 07:23:05 10° ESE daylight
26 Sep - 09:27:24 10° W 09:34:44 45° SSW 09:47:50 10° SE daylight
26 Sep - 11:48:26 10° WSW 11:57:06 25° SSW 12:09:58 10° SSE daylight
27 Sep - 05:10:38 10° SW 05:14:49 34° SSE 05:20:34 10° E visible
27 Sep - 07:29:04 10° WSW 07:34:40 53° S 07:44:20 10° ESE daylight
27 Sep - 09:48:23 10° W 09:55:48 38° SSW 10:08:33 10° SE daylight
27 Sep - 12:10:41 10° WSW 12:18:17 19° SSW 12:28:37 10° S daylight
28 Sep - 03:14:44 10° S 03:16:27 12° SSE 03:18:13 10° SE visible
28 Sep - 05:31:10 10° SW 05:35:33 41° SSE 05:41:49 10° E visible
28 Sep - 07:49:52 10° W 07:55:35 49° S 08:05:30 10° ESE daylight
28 Sep - 10:09:33 10° W 10:16:53 32° SSW 10:28:55 10° SE daylight
28 Sep - 12:34:27 10° SW 12:39:31 13° SSW 12:45:34 10° SSW daylight
29 Sep - 03:34:03 10° SSW 03:37:04 18° SSE 03:40:19 10° ESE visible
29 Sep - 05:51:48 10° WSW 05:56:20 45° S 06:03:00 10° E visible
29 Sep - 08:10:43 10° W 08:16:33 44° S 08:26:32 10° ESE daylight
29 Sep - 10:30:59 10° WSW 10:38:00 25° SSW 10:48:47 10° SSE daylight
30 Sep - 03:54:07 10° SW 03:57:44 24° SSE 04:01:45 10° ESE visible
30 Sep - 06:12:32 10° WSW 06:17:10 47° S 06:24:09 10° ESE visible
30 Sep - 08:31:39 10° W 08:37:31 37° SSW 08:47:21 10° SE daylight
30 Sep - 10:52:53 10° WSW 10:59:10 19° SSW 11:07:58 10° S daylight
01 Oct - 04:14:31 10° SW 04:18:27 31° SSE 04:22:58 10° ESE visible
01 Oct - 06:33:18 10° WSW 06:38:01 45° S 06:45:15 10° ESE daylight
01 Oct - 08:52:43 10° WSW 08:58:32 31° SSW 09:07:53 10° SE daylight
01 Oct - 11:15:54 10° SW 11:20:21 13° SSW 11:25:49 10° S daylight
02 Oct - 02:17:30 10° S 02:19:52 13° SSE 02:22:05 10° SE night (unlit)
02 Oct - 04:35:07 10° WSW 04:39:12 37° S 04:44:05 10° ESE visible
02 Oct - 06:54:09 10° WSW 06:58:54 41° S 07:06:15 10° ESE daylight
02 Oct - 09:14:00 10° WSW 09:19:34 24° SSW 09:28:02 10° SSE daylight
03 Oct - 02:37:11 10° SSW 02:40:36 19° SSE 02:43:48 10° ESE night (unlit)
03 Oct - 04:55:50 10° WSW 04:59:59 41° S 05:05:08 10° ESE visible
03 Oct - 07:15:02 10° WSW 07:19:48 36° S 07:27:06 10° SE daylight
03 Oct - 09:35:41 10° WSW 09:40:39 18° SSW 09:47:33 10° SSE daylight
